Weather History for KTTN - November, 2012

Change the Weather History Date:

Wednesday, November 7, 2012

  Actual Average Record
Temperature  
Mean Temperature 37 °F 48 °F  
Max Temperature 40 °F 58 °F 76 °F (1975)
Min Temperature 33 °F 39 °F 24 °F (1993)
Degree Days  
Heating Degree Days 28 17  
Month to date heating degree days 167 111  
Since 1 July heating degree days 475 508  
Cooling Degree Days 0 0  
Month to date cooling degree days 0 0  
Year to date cooling degree days 1234 965  
Moisture  
Dew Point 29 °F    
Average Humidity 72    
Maximum Humidity 96    
Minimum Humidity 47    
Precipitation  
Precipitation 0.35 in 0.11 in 2.73 in (1977)
Month to date precipitation 0.36 0.73  
Year to date precipitation 32.41 40.16  
Sea Level Pressure  
Sea Level Pressure 29.86 in    
Wind  
Wind Speed 14 mph (NNE)    
Max Wind Speed 22 mph    
Max Gust Speed 31 mph    
Visibility 4 miles    
Events Snow    
T = Trace of Precipitation, MM = Missing Value Source: NWS Daily Summary

Daily Weather History Graph

Daily Weather History Graph

Search for Another Location

Airport or City:

Trip Planner

Search our weather history database for the weather conditions in past years. The results will help you decide how hot, cold, wet, or windy it might be!

Date:

Astronomy

Nov. 07, 2012 Rise Set
Actual Time 6:36 AM EST 4:49 PM EST
Civil Twilight 6:07 AM EST 5:17 PM EST
Nautical Twilight 5:35 AM EST 5:50 PM EST
Astronomical Twilight 5:03 AM EST 6:22 PM EST
Moon No Moon Rise 12:57 PM EST (11/7)
Length of Visible Light 11h 10m
Length of Day
10h 12m
Last Quarter, 43% of the Moon is Illuminated
Nov 7
Last Quarter
Nov 13
New
Nov 20
First Quarter
Nov 28
Full
Dec 6
Last Quarter

Hourly Weather History & Observations

Time (EST) Temp. Windchill Dew Point Humidity Pressure Visibility Wind Dir Wind Speed Gust Speed Precip Events Conditions
12:53 AM 35.1 °F 27.9 °F 23.0 °F 61% 30.00 in 10.0 mi NNE 9.2 mph - N/A   Clear
1:53 AM 36.0 °F 31.1 °F 23.0 °F 59% 29.99 in 10.0 mi NNE 5.8 mph - N/A   Clear
2:53 AM 36.0 °F 27.5 °F 21.0 °F 55% 29.96 in 10.0 mi NE 12.7 mph - N/A   Clear
3:53 AM 37.0 °F 27.4 °F 23.0 °F 57% 29.92 in 10.0 mi NE 17.3 mph 21.9 mph N/A   Clear
4:53 AM 36.0 °F 27.1 °F 18.0 °F 48% 29.92 in 10.0 mi ENE 13.8 mph 24.2 mph N/A   Mostly Cloudy
5:53 AM 36.0 °F 27.5 °F 21.9 °F 57% 29.92 in 10.0 mi NE 12.7 mph - N/A   Mostly Cloudy
6:53 AM 37.0 °F 30.4 °F 25.0 °F 62% 29.93 in 10.0 mi NE 9.2 mph - N/A   Mostly Cloudy
7:53 AM 37.9 °F 30.5 °F 25.0 °F 60% 29.93 in 10.0 mi NE 11.5 mph - N/A   Overcast
8:53 AM 39.0 °F 31.0 °F 26.1 °F 60% 29.91 in 10.0 mi NE 13.8 mph 23.0 mph N/A   Overcast
9:53 AM 39.0 °F 29.6 °F 27.0 °F 62% 29.88 in 10.0 mi NE 18.4 mph 25.3 mph N/A   Overcast
10:53 AM 39.9 °F 32.5 °F 26.1 °F 58% 29.88 in 10.0 mi NNE 12.7 mph 23.0 mph N/A   Overcast
11:53 AM 37.9 °F 28.9 °F 28.0 °F 68% 29.85 in 9.0 mi NNE 16.1 mph 20.7 mph 0.00 in Snow Light Snow
12:00 PM 37.4 °F 29.3 °F 28.4 °F 70% 29.86 in 7.0 mi NNE 12.7 mph 20.7 mph 0.00 in Snow Light Snow
12:13 PM 37.4 °F 30.3 °F 30.2 °F 75% 29.86 in 4.0 mi NNE 10.4 mph 24.2 mph 0.00 in Snow Light Snow
12:25 PM 35.6 °F 27.5 °F 30.2 °F 81% 29.85 in 2.5 mi NNE 11.5 mph - 0.02 in Snow Light Snow
12:53 PM 36.0 °F 26.7 °F 30.0 °F 79% 29.83 in 9.0 mi NNE 15.0 mph - 0.03 in Snow Light Snow
1:22 PM 35.6 °F 28.6 °F 30.2 °F 81% 29.86 in 2.5 mi NNE 9.2 mph 17.3 mph 0.01 in Snow Light Snow
1:50 PM 35.6 °F 27.5 °F 32.0 °F 87% 29.86 in 3.0 mi NNE 11.5 mph - 0.03 in Snow Light Snow
1:53 PM 35.1 °F 26.9 °F 32.0 °F 89% 29.85 in 3.0 mi NNE 11.5 mph - 0.03 in Snow Light Snow
1:55 PM 35.6 °F 28.0 °F 32.0 °F 87% 29.86 in 2.5 mi NNE 10.4 mph - 0.00 in Snow Light Snow
2:18 PM 33.8 °F 25.3 °F 32.0 °F 93% 29.86 in 2.0 mi North 11.5 mph - 0.02 in Snow Light Snow
2:24 PM 33.8 °F 24.8 °F 32.0 °F 93% 29.86 in 1.8 mi North 12.7 mph - 0.02 in Snow Light Snow
2:41 PM 33.8 °F 25.3 °F 32.0 °F 93% 29.86 in 1.5 mi NNE 11.5 mph 23.0 mph 0.04 in Snow Light Snow
2:47 PM 33.8 °F 24.8 °F 32.0 °F 93% 29.86 in 1.8 mi North 12.7 mph - 0.04 in Snow Light Snow
2:48 PM 33.8 °F 24.3 °F 32.0 °F 93% 29.85 in 2.0 mi North 13.8 mph - 0.04 in Snow Light Snow
2:53 PM 34.0 °F 24.6 °F 32.0 °F 92% 29.85 in 2.0 mi North 13.8 mph - 0.05 in Snow Light Snow
3:36 PM 33.8 °F 23.2 °F 32.0 °F 93% 29.85 in 3.0 mi North 17.3 mph 23.0 mph 0.02 in Snow Light Snow
3:46 PM 33.8 °F 23.5 °F 32.0 °F 93% 29.85 in 4.0 mi North 16.1 mph - 0.03 in Snow Light Snow
3:53 PM 34.0 °F 24.2 °F 32.0 °F 92% 29.85 in 2.0 mi NNE 15.0 mph - 0.03 in Snow Light Snow
3:57 PM 33.8 °F 23.9 °F 32.0 °F 93% 29.85 in 2.5 mi North 15.0 mph - 0.01 in Snow Light Snow
4:01 PM 33.8 °F 23.5 °F 32.0 °F 93% 29.85 in 1.8 mi North 16.1 mph 24.2 mph 0.01 in Snow Light Snow
4:53 PM 33.1 °F 23.9 °F 30.9 °F 92% 29.83 in 1.0 mi North 12.7 mph - 0.06 in Snow Light Snow
6:14 PM 33.8 °F 24.3 °F 30.2 °F 87% 29.86 in 1.5 mi NNE 13.8 mph 23.0 mph 0.01 in Snow Light Snow
6:53 PM 33.1 °F 23.4 °F 30.9 °F 92% 29.85 in 1.5 mi NNE 13.8 mph 25.3 mph 0.03 in Snow Light Snow
7:53 PM 33.1 °F 20.9 °F 30.9 °F 92% 29.83 in 1.0 mi North 21.9 mph 28.8 mph 0.03 in Snow Light Snow
8:12 PM 33.8 °F 23.2 °F 30.2 °F 87% 29.85 in 0.8 mi North 17.3 mph 27.6 mph 0.01 in Snow Light Snow
8:22 PM 33.8 °F 23.9 °F 30.2 °F 87% 29.84 in 1.0 mi North 15.0 mph 25.3 mph 0.02 in Snow Light Snow
8:53 PM 33.1 °F 21.9 °F 30.9 °F 92% 29.83 in 1.5 mi North 18.4 mph - 0.03 in Snow Light Snow
9:53 PM 33.1 °F 22.2 °F 30.9 °F 92% 29.82 in 1.2 mi North 17.3 mph 25.3 mph 0.02 in Snow Light Snow
10:19 PM 33.8 °F 23.2 °F 30.2 °F 87% 29.82 in 1.5 mi North 17.3 mph 21.9 mph 0.00 in Snow Light Snow
10:53 PM 33.1 °F 23.0 °F 30.9 °F 92% 29.80 in 1.8 mi North 15.0 mph - 0.01 in Snow Light Snow
11:00 PM 33.8 °F 23.9 °F 30.2 °F 87% 29.81 in 1.5 mi North 15.0 mph 26.5 mph 0.00 in Snow Light Snow
11:29 PM 33.8 °F 23.5 °F 30.2 °F 87% 29.80 in 2.0 mi North 16.1 mph - 0.00 in Snow Light Snow
11:44 PM 33.8 °F 24.3 °F 30.2 °F 87% 29.80 in 1.8 mi North 13.8 mph 23.0 mph 0.00 in Snow Light Snow
11:53 PM 33.1 °F 23.0 °F 30.0 °F 89% 29.79 in 2.0 mi North 15.0 mph - 0.00 in Snow Light Snow